Location: *
(45.5224°N, 122.7471°W)
Time: 04:46:55
(UTC+00:00)

Cosmos 389 Rocket - Pass Details

Date: 09 April 2020
Orbit: 443 x 476 km, 81.1° (Epoch: 25 May)

Event Time Altitude Azimuth Distance (km) Brightness Sun altitude
Exits shadow 12:08:37 28° 267° (W) 902 3.4 -15.0°
Maximum altitude 12:09:13 30° 287° (WNW) 863 3.4 -14.9°
Drops below altitude 10° 12:12:23 10° 350° (N) 1,618 5.4 -14.5°
Sets 12:14:38 0° 2° (N) 2,491 6.6 -14.1°
